Location: Bou Ouachlou
(32.7770°N, 5.6009°W)
Time: 20:15:02
(UTC+00:00)

STARLINK-1030 - Pass Details

Date: 07 June 2020
Orbit: 548 x 551 km, 53.0° (Epoch: 11 July)

Event Time Altitude Azimuth Distance (km) Brightness Sun altitude
Exits shadow 04:13:50 17° 241° (WSW) 1,430 5.1 -11.5°
Maximum altitude 04:16:54 57° 316° (NW) 649 3.9 -11.0°
Drops below altitude 10° 04:20:58 10° 36° (NE) 1,822 7.6 -10.3°
Sets 04:23:15 0° 40° (NE) 2,719 9.0 -9.9°
